Viewpointe Walnut Grove Tower

*Note: All times are displayed in the local standard time of the station location.
**Rain - Equipment is designed to accurately record liquid precipitation; under conditions when precipitation is not in liquid form, the data displayed may not properly reflect rainfall values.

Date Max Temp
(°C)
Min Temp
(°C)
Avg Temp
(°C)
Rain (mm) Avg RH (%)
Mon, May 21, 2018 17.0 8.5 12.8 6.4 -
Sun, May 20, 2018 17.8 11.5 15.2 0.4 -
Sat, May 19, 2018 22.9 12.6 17.1 14.4 -
Fri, May 18, 2018 18.6 11.3 14.7 0.0 -
Thu, May 17, 2018 24.3 8.6 16.0 0.0 -
Wed, May 16, 2018 18.7 9.5 14.0 0.0 -
Tue, May 15, 2018 22.1 11.9 17.2 16.2 -
DateTime Avg Temp (°C) Rain (mm) RH (%)
Tue, May 22, 2018 21:00 18.1 0.0 -
Tue, May 22, 2018 20:00 19.6 0.0 -
Tue, May 22, 2018 19:00 20.7 0.0 -
Tue, May 22, 2018 18:00 20.9 3.8 -
Tue, May 22, 2018 17:00 21.2 0.0 -
Tue, May 22, 2018 16:00 20.3 0.0 -
Tue, May 22, 2018 15:00 19.8 0.0 -
Tue, May 22, 2018 14:00 19.1 0.0 -
Tue, May 22, 2018 13:00 18.1 0.0 -
Tue, May 22, 2018 12:00 18.0 0.0 -
Tue, May 22, 2018 11:00 16.9 0.0 -
Tue, May 22, 2018 10:00 16.0 0.0 -
Tue, May 22, 2018 09:00 15.8 0.0 -
Tue, May 22, 2018 08:00 15.0 0.0 -
Tue, May 22, 2018 07:00 13.8 0.0 -
Tue, May 22, 2018 06:00 12.3 0.0 -
Tue, May 22, 2018 05:00 12.9 0.0 -
Tue, May 22, 2018 04:00 13.3 0.2 -
Tue, May 22, 2018 03:00 13.5 2.2 -
Tue, May 22, 2018 02:00 13.5 0.0 -
Tue, May 22, 2018 01:00 13.3 0.4 -
Tue, May 22, 2018 00:00 13.1 0.0 -
Mon, May 21, 2018 23:00 12.6 0.0 -
Mon, May 21, 2018 22:00 11.9 0.0 -
Mon, May 21, 2018 21:00 11.6 1.0 -
Mon, May 21, 2018 20:00 12.3 1.8 -
Mon, May 21, 2018 19:00 13.5 1.8 -
Mon, May 21, 2018 18:00 14.8 1.8 -
Mon, May 21, 2018 17:00 16.6 0.0 -
Mon, May 21, 2018 16:00 16.6 0.0 -
Mon, May 21, 2018 15:00 16.1 0.0 -
Mon, May 21, 2018 14:00 15.6 0.0 -
Mon, May 21, 2018 13:00 15.4 0.0 -
Mon, May 21, 2018 12:00 15.0 0.0 -
Mon, May 21, 2018 11:00 14.9 0.0 -
Mon, May 21, 2018 10:00 14.2 0.0 -
Mon, May 21, 2018 09:00 13.2 0.0 -
Mon, May 21, 2018 08:00 11.2 0.0 -
Mon, May 21, 2018 07:00 9.4 0.0 -
Mon, May 21, 2018 06:00 9.1 0.0 -
Mon, May 21, 2018 05:00 9.7 0.0 -
Mon, May 21, 2018 04:00 9.6 0.0 -
Mon, May 21, 2018 03:00 10.1 0.0 -
Mon, May 21, 2018 02:00 10.5 0.0 -
Mon, May 21, 2018 01:00 10.8 0.0 -
Mon, May 21, 2018 00:00 11.7 0.0 -
Sun, May 20, 2018 23:00 12.6 0.0 -
Sun, May 20, 2018 22:00 13.4 0.0 -


asterix Register now to access more data! asterix